Tracking 19242 objects as of 16-Aug-2018
HD Live streaming from Space Station
objects crossing your sky now

FENGYUN 1C DEB

Track FENGYUN 1C DEB now!
10-day predictions


NORAD ID: 30059
Int'l Code: 1999-025PL
Perigee: 854.8 km
Apogee: 1,346.4 km
Inclination: 98.9 °
Period: 107.1 minutes
Semi major axis: 7471 km
RCS: 0.0511 m2 (small)
Launch date: May 10, 1999
Source: People's Republic of China (PRC)
Launch site: Taiyaun Space Center, China (TSC)

Note: This is SATELLITE DEBRIS
aabbcc
Your satellite tracking list
Your tracking list is empty




NASA's NSSDC Master Catalog

Two Line Element Set (TLE):
1 30059U 99025PL  18227.32018147  .00000003  00000-0  52359-4 0  9999
2 30059  98.8960 137.3421 0328966 235.9675 251.7671 13.44262395568390
Source of the keplerian elements: AFSPC